SJ-11-06

Satellite information

Favourite Embed

Satellite Type and Status

PAYLOADIN ORBIT

Key statistics

Satellite SJ-11-06 at a glance.

Uptime

4056

Days in orbit

Revolutions

≈ 14.6

Per day

Orbit

SSO

Sun Synchronous Orbit

Inclination

98.0

Latest

Satellite identification and parameters

Extended collection of information and parameters for SJ-11-06.

Object identification

Identified? True

Debris? False

Object name: SJ-11-06

International designator: 2014-014A

Object number (NORAD): 39624

Object ID (CCSDS): 39624

Country: PEOPLES REPUBLIC OF CHINA (PRC)

Current information (Y/N): Y

RCS size: LARGE

Orbital parameters

Period: 98.541 minutes

Inclination: 97.9904 deg

SMA: 7067.045 km

Apoapsis: 698.903 km

Periapsis: 678.917 km

RAAN: 164.2812 deg

Eccentricy: 0.001414

Argument of periapsis: 174.8435 deg

Mean anomaly: 185.2915 deg

Mean motion: 14.61322193 rev/day

Mean motion (dot): 0.0000067 rev/day2

B* drag term: 0.00014455 1/REarth

Two-line elements (TLE)

Creation date: May 8, 2025, 3:01 a.m.

Reference frame: TEME

Reference center: EARTH

Epoch: May 7, 2025, 10:59 p.m. UTC

TLE line 0: 0 SJ-11-06

TLE line 1: 1 39624U 14014A 25127.95802043 .00000670 00000-0 14455-3 0 9997

TLE line 2: 2 39624 97.9904 164.2812 0014140 174.8435 185.2915 14.61322193591503

Live tracking on map

Real-time ground track for satellite SJ-11-06.

In-orbit conjunctions

There are no conjunctions computed for SJ-11-06, at the moment. Check back to stay up to date, as we update our databases every day.

Go to all conjunctions

Associated space launch

SJ-11-06 was lifted into orbit during the mission ‘Long March 2C | Shijian 11-06’, on board a Long March 2 space rocket.

The launch took place on March 31, 2014, 2:46 a.m. from Launch Area 4 (SLS-2 / 603).

For more information about the launch, click the button.

Launch to space Long March 2C | Shijian 11-06
Long March 2C | Shijian 11-06

Agency: N/A

Status: Launch Successful

Launch date: March 31, 2014, 2:46 a.m. UTC

Rocket: Long March 2

Launch pad: Launch Area 4 (SLS-2 / 603)

Location: Jiuquan Satellite Launch Center, People's Republic of China

...

Latest news about this satellite

There are no fresh news available about this satellite. Check back as we update our databases every day.


Newsletter sign-up

Weekly statistics, charts and insights to help you stay on top of the space industry.